Location: Huntsville
(41.2590°N, 111.7678°W)
Time: 11:18:48
(UTC+00:00)

Envisat - Pass Details

Date: 05 December 2021
Orbit: 764 x 766 km, 98.2° (Epoch: 28 January)

Event Time Altitude Azimuth Distance (km) Brightness Sun altitude
Rises 01:09:16 0° 220° (SW) 3,220 7.3 -13.0°
Reaches altitude 10° 01:13:31 10° 255° (WSW) 2,302 6.9 -13.8°
Maximum altitude 01:14:57 11° 272° (W) 2,228 6.6 -14.1°
Drops below altitude 10° 01:16:22 10° 288° (WNW) 2,307 6.3 -14.3°
Sets 01:20:41 0° 323° (NW) 3,241 6.5 -15.1°
